Regional Weather Roundup
Issued by NWS Kansas City/Pleasant Hill, MO

Home | Current Version | Previous Version | Graphics & Text | Print | Product List | Glossary Off
Versions: 1 2 3 4 5 6 7 8 9 10 11 12 13 14 15 16 17 18 19 20 21 22 23 24 25 26 27 28 29 30 31 32 33 34 35 36 37 38 39 40 41 42 43 44 45 46 47 48 49 50

000
ASUS43 KEAX 050110
RWREAX

WEATHER ROUNDUP FOR EASTERN KANSAS AND NORTHWEST MISSOURI
NATIONAL WEATHER SERVICE KANSAS CITY/PLEASANT HILL MO
800 PM CDT FRI SEP 04 2015

KSZ040-057-103>105-MOZ028-029-037-043-050200-
...KANSAS CITY METROPOLITAN AREA...

CITY           SKY/WX    TMP DP  RH WIND       PRES   REMARKS
K.C. INTL      PTCLDY    79  68  69 S9        29.95R
K.C. DOWNTOWN  CLEAR     86  66  51 S10       29.94R
LEES SUMMIT    CLEAR     83  66  56 S6        29.96S
OLATHE - IXD   CLEAR     81  69  67 SE8       29.96S
OLATHE - OJC   CLEAR     79  69  71 S6        29.95S
LAWRENCE       CLEAR     81  69  67 SE8       29.93S

$$

MOZ001>008-011>017-020>025-030>033-038>040-044>046-053-054-050200-
...NORTHERN AND CENTRAL MISSOURI...

CITY           SKY/WX    TMP DP  RH WIND       PRES   REMARKS
ST. JOSEPH     CLEAR     80  69  69 S7        29.92S
MOSBY          CLEAR     84  66  54 S5        29.94S
WARRENSBURG    CLEAR     82  68  61 S3        29.96S
WHITEMAN AFB   CLEAR     81  69  67 S6        29.96S
CLINTON        CLEAR     82  72  69 CALM      29.97F
SEDALIA        CLEAR     81  70  69 S6        29.99S
WARSAW         NOT AVBL
CHILLICOTHE      N/A     82  70  66 CALM      29.96R
KIRKSVILLE     CLEAR     81  69  67 S5        29.98S

$$

MOZ041-047>049-056>058-063>065-088>090-097-050200-
...EASTERN AND SOUTHERN MISSOURI...

CITY           SKY/WX    TMP DP  RH WIND       PRES   REMARKS
ST. LOUIS INTL MOCLDY    89  68  49 S5        29.99S HX  93
SPIRIT OF STL  PTCLDY    78  73  84 CALM      29.98R
COLUMBIA       CLEAR     81  73  76 S6        29.99S
JEFFERSON CITY PTCLDY    85  70  60 CALM      29.97S
ROLLA          CLEAR     80  70  71 S5        30.00S
OSAGE BEACH    CLEAR     82  66  57 SE3       30.00S
SPRINGFIELD    CLEAR     81  68  64 SE7       30.00S
BRANSON        PTCLDY    81  68  65 E5        30.02S
JOPLIN         CLEAR     83  69  62 SE3       29.97S
WEST PLAINS    CLEAR     80  70  71 CALM      30.04R

$$

IAZ060-094-KSZ022-034>040-054-083-096-NEZ052-066-093-050200-
...KANSAS...SOUTHEAST NEBRASKA AND IOWA...

CITY           SKY/WX    TMP DP  RH WIND       PRES   REMARKS
TOPEKA         CLEAR     83  68  60 SE10      29.91S
MANHATTAN      CLEAR     85  66  53 S6        29.88R
EMPORIA        CLEAR     82  68  62 SE10      29.92S
CHANUTE        CLEAR     80  71  74 SE6       29.94F
WICHITA        PTCLDY    86  66  51 SE10      29.89S
OMAHA          PTCLDY    84  69  60 SE17      29.87R
LINCOLN        CLEAR     84  65  52 S10       29.86R
FALLS CITY     CLEAR     82  66  58 S10       29.89S
LAMONI         PTCLDY    83  70  64 SE6       29.95S
DES MOINES     MOCLDY    85  70  60 SE8       29.93S

$$



USA.gov is the U.S. government's official web portal to all federal, state and local government web resources and services.